{"data":{"norad_id":65164,"epoch":"2026-05-25T03:33:55.289376Z","epoch_age_seconds":58217,"freshness":"FRESH","line1":"1 65164U 25174A   26145.14855659  .00000006  00000+0 -20858-4 0  9995","line2":"2 65164  86.4959 259.7842 0001931  95.5804 264.5550 13.24404207 37742","mean_motion":13.24404207,"eccentricity":0.0001931,"inclination_deg":86.4959,"raan_deg":259.7842,"arg_perigee_deg":95.5804,"mean_anomaly_deg":264.555,"bstar":-2.0858e-5,"rev_number":3774,"period_min":108.72813544302,"perigee_km":1166.4870418542,"apogee_km":1169.4013384098,"semimajor_km":7546.081190132,"source":"CELESTRAK","updated_at":"2026-05-25T13:38:05.172527Z"}}